Flag for Switzerland Weather past 2 weeks in Stäfa, Zurich, Switzerland

Now
54 °F

Cool.


Feels Like: 54 °F
Forecast: 47 / 66 °F
Wind: 2 mph from Southeast

Location: Zurich Town / Ville.

Current Time: Sep 4, 2015 at 6:30:46 AM

Latest Report: Sep 4, 2015 at 5:00 AM


Visibility: N/A

Pressure: 30.03 "Hg

Humidity: 95%

Dew point: 53 °F

Location of StäfaLocation

Historic Weather in Stäfa — Graph

°F

Stäfa temperature yesterday

Maximum temperature yesterday: 64 °F (at 4:00 PM)
Minimum temperature yesterday: 56 °F (at 11:00 PM)
Average temperature yesterday: 59 °F

Past Weeks' High & Low Weather Summary

 TemperatureHumidityPressure
High89 °F (Aug 30, 4:00 PM)98% (Aug 24, 2:00 AM)30.26 "Hg (Aug 24, 2:00 AM)
Low52 °F (Aug 20, 7:00 AM)23% (Aug 30, 3:00 PM)29.70 "Hg (Aug 24, 2:00 PM)
Average67 °F68%30.00 "Hg
* Reported Aug 20 4:00 AM — Sep 4 4:00 AM, Stäfa, Weather by CustomWeather, © 2015

Note: Actual official high and low records may vary slightly from our data, if they occured in-between our weather recording intervals... More about our weather records

Advertising

Stäfa weather history for previous 24 hours

 ConditionsComfort  
Time TempWeatherWind HumidityBarometerVisibility
4:00 AM
Fri, Sep 4
55 °FCool.1 mph93%30.03 "HgN/A
3:00 AM56 °FCool.5 mph92%30.03 "HgN/A
2:00 AM56 °FCool.2 mph87%30.03 "HgN/A
1:00 AM55 °FCool.2 mph88%30.03 "HgN/A
12:00 AM56 °FCool.2 mph89%30.02 "HgN/A
11:00 PM
Thu, Sep 3
56 °FCool.1 mph91%30.01 "HgN/A
10:00 PM56 °FCool.2 mph88%30.00 "HgN/A
9:00 PM57 °FCool.5 mph92%29.99 "HgN/A
8:00 PM58 °FOvercast.3 mph95%29.98 "HgN/A
7:00 PM57 °FCool.2 mph92%29.97 "HgN/A
6:00 PM62 °FCool.3 mph68%29.94 "HgN/A
5:00 PM63 °FMild.3 mph71%29.94 "HgN/A
4:00 PM64 °FMild.3 mph64%29.93 "HgN/A
3:00 PM64 °FMild.5 mph62%29.95 "HgN/A
2:00 PM62 °FOvercast.5 mph68%29.96 "HgN/A
1:00 PM61 °FCool.2 mph69%29.96 "HgN/A
12:00 PM62 °FCool.2 mph68%29.96 "HgN/A
11:00 AM60 °FCool.1 mph75%29.97 "HgN/A
10:00 AM58 °FCool.3 mph80%29.98 "HgN/A
9:00 AM58 °FCool.6 mph81%29.98 "HgN/A
8:00 AM58 °FCool.3 mph79%29.97 "HgN/A
7:00 AM57 °FCool.3 mph81%29.96 "HgN/A
Weather by CustomWeather, © 2015

See weather overviewHow to use our weather pages